{"data":{"norad_id":57758,"intl_designator":"2023-133C","name":"WILDFIRE 3","alt_names":[],"object_type":"PAYLOAD","status":"ACTIVE","operator":null,"country":"US","launch_date":"2023-09-02","launch_site_code":"AFWTR","launch_vehicle":null,"mission":null,"orbit_class":"UNKNOWN","rcs_meters":null,"size_class":null,"mass_kg":null,"dimensions":null,"purposes":[],"wikipedia_slug":null,"has_3d_model":false,"image_url":null,"decayed_at":null,"tle_current":{"epoch":"2026-05-25T03:30:07.115616Z","epoch_age_seconds":58526,"freshness":"FRESH","line1":"1 57758U 23133C   26145.14591569  .00000078  00000+0  57765-4 0  9990","line2":"2 57758  80.9984  28.1408 0009514  58.7453 301.4634 13.86268490137904","mean_motion":13.8626849,"eccentricity":0.0009514,"inclination_deg":80.9984,"raan_deg":28.1408,"arg_perigee_deg":58.7453,"mean_anomaly_deg":301.4634,"bstar":5.7765e-5,"rev_number":13790,"period_min":103.87598148465,"perigee_km":934.77289471162,"apogee_km":948.70115100232,"semimajor_km":7319.874022857,"source":"CELESTRAK","updated_at":"2026-05-25T13:38:00.235039Z"}}}